Concord, NH

10:31 PM EDT on April 28, 2017 (GMT -0400)
Concord Municipal

Weather History for KCON - September, 2012

Change the Weather History Date:

Wednesday, September 19, 2012

  Actual Average Record
Temperature  
Mean Temperature 55 °F 59 °F  
Max Temperature 70 °F 71 °F 91 °F (1983)
Min Temperature 39 °F 46 °F 30 °F (1939)
Degree Days  
Heating Degree Days 10 7  
Month to date heating degree days 68 84  
Since 1 July heating degree days 74 132  
Cooling Degree Days 0 1  
Month to date cooling degree days 38 32  
Year to date cooling degree days 568 445  
Growing Degree Days 7 (Base 50)    
Moisture  
Dew Point 48 °F    
Average Humidity 65    
Maximum Humidity 97    
Minimum Humidity 32    
Precipitation  
Precipitation T in 0.11 in 2.15 in (2016)
Month to date precipitation 1.57 2.02  
Year to date precipitation 28.54 28.29  
Snow  
Snow 0.00 in 0.00 in 0.00 in (2002)
Month to date snowfall 0.0 0.0  
Since 1 July snowfall 0.0 0.0  
Since 1 September snowfall 0.0 0.0  
Snow Depth 0.00 in    
Sea Level Pressure  
Sea Level Pressure 29.94 in    
Wind  
Wind Speed 7 mph (NW)    
Max Wind Speed 16 mph    
Max Gust Speed 24 mph    
Visibility 10 miles    
Events Rain    
T = Trace of Precipitation, MM = Missing Value Source: NWS Daily Summary

Daily Weather History Graph

Daily Weather History Graph

Search for Another Location

Airport or City:

Trip Planner

Search our weather history database for the weather conditions in past years. The results will help you decide how hot, cold, wet, or windy it might be!

Date:

Astronomy

Sep. 19, 2012 Rise Set
Actual Time 6:30 AM EDT 6:47 PM EDT
Civil Twilight 6:01 AM EDT 7:16 PM EDT
Nautical Twilight 5:28 AM EDT 7:49 PM EDT
Astronomical Twilight 4:54 AM EDT 8:24 PM EDT
Moon 10:45 AM EDT (9/19) 8:46 PM EDT (9/19)
Length of Visible Light 13h 14m
Length of Day
12h 17m
Waxing Crescent, 17% of the Moon is Illuminated
Sep 19
Waxing Crescent
Sep 22
First Quarter
Sep 29
Full
Oct 8
Last Quarter
Oct 15
New

Hourly Weather History & Observations

Time (EDT) Temp. Dew Point Humidity Pressure Visibility Wind Dir Wind Speed Gust Speed Precip Events Conditions
12:12 AM 69.8 °F 68.0 °F 94% 29.65 in 9.0 mi SSE 11.5 mph 20.7 mph N/A Rain Light Rain
12:51 AM 69.1 °F 68.0 °F 96% 29.66 in 3.0 mi South 12.7 mph - 0.17 in Rain Heavy Rain
1:51 AM 68.0 °F 66.0 °F 93% 29.68 in 10.0 mi Variable 3.5 mph - 0.03 in   Overcast
2:23 AM 66.2 °F 66.2 °F 100% 29.68 in 10.0 mi South 6.9 mph - N/A   Overcast
2:51 AM 66.9 °F 64.0 °F 90% 29.67 in 10.0 mi SSW 8.1 mph - 0.00 in   Overcast
3:51 AM 66.0 °F 64.9 °F 96% 29.70 in 10.0 mi South 4.6 mph - N/A   Mostly Cloudy
4:51 AM 63.0 °F 59.0 °F 87% 29.74 in 10.0 mi WNW 9.2 mph - 0.00 in   Overcast
5:37 AM 60.8 °F 53.6 °F 77% 29.78 in 10.0 mi NW 9.2 mph - N/A   Overcast
5:51 AM 61.0 °F 54.0 °F 78% 29.78 in 10.0 mi NW 8.1 mph - N/A   Overcast
6:51 AM 60.1 °F 50.0 °F 69% 29.81 in 10.0 mi WNW 9.2 mph - N/A   Overcast
7:51 AM 57.9 °F 48.0 °F 70% 29.86 in 10.0 mi NW 10.4 mph - 0.00 in   Overcast
8:51 AM 57.9 °F 48.0 °F 70% 29.89 in 10.0 mi West 8.1 mph - N/A   Overcast
9:51 AM 60.1 °F 46.9 °F 62% 29.92 in 10.0 mi NW 9.2 mph - N/A   Overcast
10:51 AM 63.0 °F 45.0 °F 52% 29.95 in 10.0 mi NW 11.5 mph 18.4 mph N/A   Partly Cloudy
11:51 AM 64.9 °F 44.1 °F 47% 29.97 in 10.0 mi NW 11.5 mph 17.3 mph N/A   Clear
12:51 PM 66.9 °F 41.0 °F 39% 30.00 in 10.0 mi NW 13.8 mph 19.6 mph N/A   Clear
1:51 PM 68.0 °F 39.9 °F 36% 30.01 in 10.0 mi NNW 11.5 mph - N/A   Clear
2:51 PM 68.0 °F 41.0 °F 37% 30.03 in 10.0 mi NNW 12.7 mph 18.4 mph N/A   Clear
3:51 PM 68.0 °F 37.0 °F 32% 30.04 in 10.0 mi NW 8.1 mph - N/A   Clear
4:51 PM 66.9 °F 35.1 °F 31% 30.07 in 10.0 mi NW 10.4 mph 17.3 mph N/A   Clear
5:51 PM 64.0 °F 37.0 °F 37% 30.09 in 10.0 mi NNW 9.2 mph - N/A   Clear
6:51 PM 59.0 °F 39.9 °F 49% 30.12 in 10.0 mi North 8.1 mph - N/A   Clear
7:51 PM 55.0 °F 39.9 °F 57% 30.15 in 10.0 mi North 3.5 mph - N/A   Clear
8:51 PM 50.0 °F 42.1 °F 74% 30.18 in 10.0 mi Calm Calm - N/A   Clear
9:51 PM 46.9 °F 41.0 °F 80% 30.20 in 10.0 mi Calm Calm - N/A   Clear
10:51 PM 44.1 °F 39.9 °F 85% 30.21 in 10.0 mi Calm Calm - N/A   Clear
11:51 PM 41.0 °F 39.9 °F 96% 30.22 in 10.0 mi Calm Calm - N/A   Clear